This is the latest recevied weather packets stored in our database for station/object W4CAT-13. If no packets are shown the sender has not sent any weather packets the latest 10 day(s).
| Time | Temp. | Humidity | Pressure | Rain* | Wind** | Luminosity | Snow |
|---|---|---|---|---|---|---|---|
| 1777927235 | 25.56° C | 39% | 973.6 hPa | 0 mm | - | - | - |
| 1777926305 | 25.56° C | 39% | 973.6 hPa | 0 mm | - | - | - |
| 1777925375 | 25.56° C | 40% | 973.9 hPa | 0 mm | - | - | - |
| 1777924445 | 25.56° C | 40% | 973.9 hPa | 0 mm | - | - | - |
| 1777923515 | 25.56° C | 41% | 974.3 hPa | 0 mm | - | - | - |
| 1777922585 | 25.56° C | 39% | 974.6 hPa | 0 mm | - | - | - |
| 1777921655 | 25.56° C | 42% | 974.9 hPa | 0 mm | - | - | - |
| 1777920725 | 25.56° C | 43% | 974.9 hPa | 0 mm | - | - | - |
| 1777919795 | 25° C | 44% | 974.9 hPa | 0 mm | - | - | - |
| 1777918865 | 24.44° C | 44% | 975.3 hPa | 0 mm | - | - | - |
| 1777917935 | 25° C | 45% | 975.3 hPa | 0 mm | - | - | - |
| 1777917004 | 24.44° C | 45% | 975.3 hPa | 0 mm | - | - | - |
| 1777916075 | 23.89° C | 44% | 975.5 hPa | 0 mm | - | - | - |
| 1777914215 | 23.33° C | 49% | 976 hPa | 0 mm | - | - | - |
| 1777913285 | 22.78° C | 50% | 976.3 hPa | 0 mm | - | - | - |
| 1777912388 | 22.22° C | 51% | 976.3 hPa | 0 mm | - | - | - |
| 1777912355 | 22.22° C | 51% | 976.3 hPa | 0 mm | - | - | - |
| 1777911425 | 21.67° C | 51% | 977 hPa | 0 mm | - | - | - |
| 1777910495 | 21.11° C | 53% | 976.6 hPa | 0 mm | - | - | - |
| 1777909565 | 20.56° C | 55% | 977 hPa | 0 mm | - | - | - |
| 1777908635 | 20° C | 57% | 977 hPa | 0 mm | - | - | - |
| 1777907705 | 19.44° C | 57% | 977 hPa | 0 mm | - | - | - |
| 1777906775 | 18.33° C | 60% | 977 hPa | 0 mm | - | - | - |
| 1777905844 | 17.22° C | 61% | 977 hPa | 0 mm | - | - | - |
| 1777904915 | 16.67° C | 62% | 977.3 hPa | 0 mm | - | - | - |
* Rain latest hour (hover to see other rain measurements)
** Current wind speed in m/s (hover to see current wind gust speed)